When you browse on this site, cookies collect data to enhance your experience and personalize the content and advertising you see.
Visit our Privacy Policy to learn more. By continuing to use the site, you agree to this use of cookies and data.
  • In Austria
  • List of Countries
  • For 7 days
  • Water Temperature
  • Weather Map
  • News
  • Weather Widgets
  • user-avatar
    Login

    Hourly Weather Paispamba

    Today, 19 January, Sunday

    Time Temperature Precipitation Wind Pressure Humidity
    00:00 +14°C° 0 mm 1 mps 569 mmHg 87%
    01:00 +14°C° 0 mm 1 mps 569 mmHg 88%
    02:00 +14°C° 0 mm 1 mps 568 mmHg 88%
    03:00 +14°C° 0 mm 1 mps 568 mmHg 88%
    04:00 +14°C° 0 mm 1 mps 568 mmHg 88%
    05:00 +14°C° 0 mm 1 mps 568 mmHg 88%
    06:00 +14°C° 0 mm 1 mps 569 mmHg 87%
    07:00 +14°C° 0 mm 1 mps 569 mmHg 87%
    08:00 +16°C° 0 mm 1 mps 570 mmHg 80%
    09:00 +19°C° 0 mm 1 mps 571 mmHg 73%
    10:00 +21°C° 0 mm 1 mps 573 mmHg 66%
    11:00 +21°C° 0.1 mm 1 mps 573 mmHg 63%
    12:00 +22°C° 0.1 mm 1 mps 572 mmHg 61%
    13:00 +23°C° 0.1 mm 2 mps 572 mmHg 58%
    14:00 +22°C° 0.4 mm 1 mps 571 mmHg 63%
    15:00 +22°C° 0.4 mm 1 mps 570 mmHg 68%
    16:00 +21°C° 0.4 mm 1 mps 570 mmHg 73%
    17:00 +19°C° 0.7 mm 1 mps 569 mmHg 80%
    18:00 +16°C° 0.7 mm 1 mps 569 mmHg 87%
    19:00 +15°C° 0.7 mm 1 mps 568 mmHg 95%
    20:00 +14°C° 0.4 mm 1 mps 569 mmHg 94%
    21:00 +14°C° 0.4 mm 1 mps 569 mmHg 94%
    22:00 +14°C° 0.4 mm 1 mps 570 mmHg 94%
    23:00 +14°C° 0.2 mm 1 mps 569 mmHg 94%

    Tomorrow, 20 January, Monday

    Time Temperature Precipitation Wind Pressure Humidity
    00:00 +13°C° 0.2 mm 1 mps 569 mmHg 94%
    01:00 +13°C° 0.2 mm 1 mps 569 mmHg 93%
    02:00 +13°C° 0.1 mm 1 mps 568 mmHg 93%
    03:00 +13°C° 0.1 mm 1 mps 568 mmHg 94%
    04:00 +12°C° 0.1 mm 1 mps 568 mmHg 94%
    05:00 +13°C° 0 mm 1 mps 568 mmHg 93%
    06:00 +13°C° 0 mm 1 mps 569 mmHg 92%
    07:00 +13°C° 0 mm 1 mps 569 mmHg 92%
    08:00 +15°C° 0.2 mm 1 mps 570 mmHg 87%
    09:00 +18°C° 0.2 mm 1 mps 572 mmHg 82%
    10:00 +20°C° 0.2 mm 1 mps 573 mmHg 77%
    11:00 +20°C° 1.4 mm 1 mps 572 mmHg 80%
    12:00 +20°C° 1.4 mm 1 mps 572 mmHg 82%
    13:00 +20°C° 1.4 mm 1 mps 571 mmHg 85%
    14:00 +19°C° 1.9 mm 1 mps 571 mmHg 88%
    15:00 +17°C° 1.9 mm 0 mps 570 mmHg 90%
    16:00 +16°C° 1.9 mm 0 mps 569 mmHg 92%
    17:00 +15°C° 1.1 mm 0 mps 569 mmHg 94%
    18:00 +14°C° 1.1 mm 0 mps 569 mmHg 96%
    19:00 +14°C° 1.1 mm 0 mps 569 mmHg 97%
    20:00 +13°C° 0.9 mm 0 mps 569 mmHg 97%
    21:00 +13°C° 0.9 mm 0 mps 570 mmHg 97%
    22:00 +13°C° 0.9 mm 0 mps 570 mmHg 97%
    23:00 +13°C° 0.9 mm 0 mps 570 mmHg 97%

    Day after tomorrow, 21 January, Tuesday

    Time Temperature Precipitation Wind Pressure Humidity
    00:00 +13°C° 0.9 mm 0 mps 569 mmHg 98%
    01:00 +12°C° 0.9 mm 0 mps 569 mmHg 98%
    02:00 +12°C° 1.1 mm 0 mps 569 mmHg 98%
    03:00 +12°C° 1.1 mm 0 mps 568 mmHg 98%
    04:00 +12°C° 1.1 mm 0 mps 568 mmHg 99%
    05:00 +12°C° 1.7 mm 0 mps 568 mmHg 98%
    06:00 +12°C° 1.7 mm 0 mps 569 mmHg 98%
    07:00 +12°C° 1.7 mm 0 mps 569 mmHg 98%
    08:00 +13°C° 1.1 mm 0 mps 570 mmHg 98%
    09:00 +13°C° 1.1 mm 0 mps 570 mmHg 97%
    10:00 +14°C° 1.1 mm 0 mps 571 mmHg 97%
    11:00 +14°C° 1.3 mm 1 mps 570 mmHg 97%
    12:00 +14°C° 1.3 mm 1 mps 570 mmHg 98%
    13:00 +14°C° 1.3 mm 1 mps 569 mmHg 98%
    14:00 +14°C° 2.5 mm 1 mps 569 mmHg 98%
    15:00 +13°C° 2.5 mm 0 mps 568 mmHg 97%
    16:00 +13°C° 2.5 mm 0 mps 568 mmHg 97%
    17:00 +12°C° 0.5 mm 0 mps 568 mmHg 98%
    18:00 +12°C° 0.5 mm 0 mps 568 mmHg 98%
    19:00 +13°C° 0.5 mm 1 mps 568 mmHg 98%
    20:00 +12°C° 0.4 mm 0 mps 569 mmHg 98%
    21:00 +12°C° 0.4 mm 0 mps 569 mmHg 97%
    22:00 +11°C° 0.4 mm 0 mps 569 mmHg 97%
    23:00 +11°C° 0.3 mm 0 mps 569 mmHg 97%

    22 January, Wednesday

    Time Temperature Precipitation Wind Pressure Humidity
    00:00 +11°C° 0.3 mm 0 mps 569 mmHg 97%
    01:00 +11°C° 0.3 mm 0 mps 568 mmHg 97%
    02:00 +11°C° 0.1 mm 0 mps 568 mmHg 97%
    03:00 +11°C° 0.1 mm 0 mps 568 mmHg 97%
    04:00 +12°C° 0.1 mm 1 mps 567 mmHg 97%
    05:00 +11°C° 0 mm 0 mps 568 mmHg 96%
    06:00 +11°C° 0 mm 0 mps 568 mmHg 96%
    07:00 +11°C° 0 mm 0 mps 569 mmHg 95%
    08:00 +13°C° 0.2 mm 1 mps 569 mmHg 92%
    09:00 +14°C° 0.2 mm 1 mps 570 mmHg 90%
    10:00 +15°C° 0.2 mm 1 mps 571 mmHg 87%
    11:00 +16°C° 0.5 mm 1 mps 571 mmHg 87%
    12:00 +16°C° 0.5 mm 1 mps 570 mmHg 86%
    13:00 +18°C° 0.5 mm 1 mps 570 mmHg 85%
    14:00 +18°C° 0.4 mm 1 mps 569 mmHg 85%
    15:00 +18°C° 0.4 mm 1 mps 569 mmHg 85%
    16:00 +18°C° 0.4 mm 1 mps 569 mmHg 85%
    17:00 +16°C° 0.4 mm 1 mps 568 mmHg 89%
    18:00 +15°C° 0.4 mm 1 mps 568 mmHg 93%
    19:00 +12°C° 0.4 mm 0 mps 568 mmHg 97%
    20:00 +12°C° 0.1 mm 0 mps 568 mmHg 97%
    21:00 +12°C° 0.1 mm 0 mps 569 mmHg 97%
    22:00 +13°C° 0.1 mm 1 mps 569 mmHg 96%
    23:00 +12°C° 0 mm 0 mps 569 mmHg 96%

    23 January, Thursday

    Time Temperature Precipitation Wind Pressure Humidity
    00:00 +12°C° 0 mm 0 mps 568 mmHg 96%
    01:00 +11°C° 0 mm 0 mps 568 mmHg 96%
    02:00 +11°C° 0.1 mm 0 mps 568 mmHg 96%
    03:00 +11°C° 0.1 mm 0 mps 568 mmHg 96%
    04:00 +11°C° 0.1 mm 0 mps 567 mmHg 96%
    05:00 +11°C° 0 mm 0 mps 568 mmHg 95%
    06:00 +11°C° 0 mm 0 mps 568 mmHg 95%
    07:00 +12°C° 0 mm 0 mps 569 mmHg 95%
    08:00 +14°C° 0.1 mm 1 mps 570 mmHg 88%
    09:00 +16°C° 0.1 mm 1 mps 571 mmHg 82%
    10:00 +19°C° 0.1 mm 1 mps 572 mmHg 75%
    11:00 +19°C° 0.6 mm 1 mps 572 mmHg 77%
    12:00 +19°C° 0.6 mm 1 mps 571 mmHg 79%
    13:00 +20°C° 0.6 mm 1 mps 571 mmHg 81%
    14:00 +19°C° 1.3 mm 1 mps 570 mmHg 83%
    15:00 +19°C° 1.3 mm 1 mps 569 mmHg 85%
    16:00 +18°C° 1.3 mm 1 mps 568 mmHg 87%
    17:00 +16°C° 0.9 mm 1 mps 568 mmHg 91%
    18:00 +14°C° 0.9 mm 0 mps 568 mmHg 94%
    19:00 +13°C° 0.9 mm 0 mps 568 mmHg 97%
    20:00 +13°C° 0.4 mm 0 mps 568 mmHg 97%
    21:00 +13°C° 0.4 mm 0 mps 569 mmHg 97%
    22:00 +12°C° 0.4 mm 0 mps 569 mmHg 97%
    23:00 +12°C° 0.1 mm 0 mps 569 mmHg 97%

    24 January, Friday

    Time Temperature Precipitation Wind Pressure Humidity
    00:00 +12°C° 0.1 mm 0 mps 568 mmHg 97%
    01:00 +12°C° 0.1 mm 0 mps 568 mmHg 98%
    02:00 +12°C° 0.1 mm 0 mps 568 mmHg 97%
    03:00 +12°C° 0.1 mm 0 mps 567 mmHg 97%
    04:00 +12°C° 0.1 mm 0 mps 567 mmHg 97%
    05:00 +12°C° 0 mm 0 mps 568 mmHg 97%
    06:00 +12°C° 0 mm 0 mps 568 mmHg 96%
    07:00 +12°C° 0 mm 0 mps 569 mmHg 96%
    08:00 +14°C° 0.1 mm 0 mps 570 mmHg 91%
    09:00 +16°C° 0.1 mm 1 mps 571 mmHg 86%
    10:00 +19°C° 0.1 mm 1 mps 572 mmHg 81%
    11:00 +19°C° 0.7 mm 1 mps 571 mmHg 83%
    12:00 +19°C° 0.7 mm 1 mps 571 mmHg 85%
    13:00 +19°C° 0.7 mm 1 mps 570 mmHg 88%
    14:00 +19°C° 1.2 mm 1 mps 570 mmHg 88%
    15:00 +18°C° 1.2 mm 1 mps 569 mmHg 89%
    16:00 +18°C° 1.2 mm 1 mps 569 mmHg 89%
    17:00 +16°C° 1 mm 1 mps 569 mmHg 92%
    18:00 +14°C° 1 mm 0 mps 568 mmHg 95%
    19:00 +13°C° 1 mm 0 mps 568 mmHg 97%
    20:00 +13°C° 0.3 mm 0 mps 569 mmHg 97%
    21:00 +13°C° 0.3 mm 0 mps 569 mmHg 97%
    22:00 +13°C° 0.3 mm 0 mps 570 mmHg 97%
    23:00 +12°C° 0.1 mm 0 mps 569 mmHg 97%
    Show more